Time,TemperatureF,DewpointF,PressureIn,WindDirection,WindDirectionDegrees,WindSpeedMPH,WindSpeedGustMPH,Humidity,HourlyPrecipIn,Conditions,Clouds,dailyrainin,SoftwareType,DateUTC
2013-02-11 00:02:00,67.0,-99.9,30.22,SE,139,11.0,15.0,-999,-99.99,,,-99.99,,2013-02-11 05:02:00,
2013-02-11 00:12:00,67.0,-99.9,30.21,SE,139,11.0,14.0,-999,-99.99,,,-99.99,,2013-02-11 05:12:00,
2013-02-11 00:22:00,66.0,-99.9,30.21,SE,139,11.0,14.0,-999,-99.99,,,-99.99,,2013-02-11 05:22:00,
2013-02-11 00:32:00,66.0,-99.9,30.21,SE,145,13.0,15.0,-999,-99.99,,,-99.99,,2013-02-11 05:32:00,
2013-02-11 00:42:00,66.0,-99.9,30.21,SE,142,11.0,14.0,-999,-99.99,,,-99.99,,2013-02-11 05:42:00,
2013-02-11 00:53:00,66.0,-99.9,30.20,SSE,147,11.0,15.0,-999,-99.99,,,-99.99,,2013-02-11 05:53:00,
2013-02-11 01:02:00,66.0,-99.9,30.20,SSE,153,12.0,15.0,-999,-99.99,,,-99.99,,2013-02-11 06:02:00,
2013-02-11 01:12:00,66.0,-99.9,30.20,SSE,155,12.0,15.0,-999,-99.99,,,-99.99,,2013-02-11 06:12:00,
2013-02-11 01:22:00,66.0,-99.9,30.20,SSE,159,11.0,14.0,-999,-99.99,,,-99.99,,2013-02-11 06:22:00,
2013-02-11 01:32:00,66.0,-99.9,30.20,SSE,160,11.0,14.0,-999,-99.99,,,-99.99,,2013-02-11 06:32:00,
2013-02-11 01:42:00,65.0,-99.9,30.20,SSE,159,11.0,12.0,-999,-99.99,,,-99.99,,2013-02-11 06:42:00,
2013-02-11 01:52:00,65.0,-99.9,30.21,SSE,158,9.0,11.0,-999,-99.99,,,-99.99,,2013-02-11 06:52:00,
2013-02-11 02:02:00,65.0,-99.9,30.20,SSE,165,9.0,10.0,-999,-99.99,,,-99.99,,2013-02-11 07:02:00,
2013-02-11 02:12:00,65.0,-99.9,30.20,SSE,163,11.0,12.0,-999,-99.99,,,-99.99,,2013-02-11 07:12:00,
2013-02-11 02:22:00,65.0,-99.9,30.19,SSE,164,13.0,14.0,-999,-99.99,,,-99.99,,2013-02-11 07:22:00,
2013-02-11 02:32:00,65.0,-99.9,30.18,SSE,159,13.0,15.0,-999,-99.99,,,-99.99,,2013-02-11 07:32:00,
2013-02-11 02:42:00,65.0,-99.9,30.18,SSE,162,13.0,16.0,-999,-99.99,,,-99.99,,2013-02-11 07:42:00,
2013-02-11 02:52:00,65.0,-99.9,30.18,SSE,162,14.0,15.0,-999,-99.99,,,-99.99,,2013-02-11 07:52:00,
2013-02-11 03:01:00,65.0,-99.9,30.18,SSE,161,12.0,15.0,-999,-99.99,,,-99.99,,2013-02-11 08:01:00,
2013-02-11 03:11:00,65.0,-99.9,30.18,SSE,160,11.0,13.0,-999,-99.99,,,-99.99,,2013-02-11 08:11:00,
2013-02-11 03:22:00,65.0,-99.9,30.17,SSE,157,13.0,15.0,-999,-99.99,,,-99.99,,2013-02-11 08:22:00,
2013-02-11 03:32:00,65.0,-99.9,30.17,SSE,158,12.0,14.0,-999,-99.99,,,-99.99,,2013-02-11 08:32:00,
2013-02-11 03:42:00,65.0,-99.9,30.17,SSE,158,11.0,12.0,-999,-99.99,,,-99.99,,2013-02-11 08:42:00,
2013-02-11 03:52:00,65.0,-99.9,30.17,SSE,157,10.0,13.0,-999,-99.99,,,-99.99,,2013-02-11 08:52:00,
2013-02-11 04:02:00,65.0,-99.9,30.16,SSE,159,11.0,13.0,-999,-99.99,,,-99.99,,2013-02-11 09:02:00,
2013-02-11 04:12:00,65.0,-99.9,30.17,SSE,162,10.0,13.0,-999,-99.99,,,-99.99,,2013-02-11 09:12:00,
2013-02-11 04:22:00,65.0,-99.9,30.16,SSE,162,11.0,13.0,-999,-99.99,,,-99.99,,2013-02-11 09:22:00,
2013-02-11 04:32:00,65.0,-99.9,30.16,SSE,161,10.0,13.0,-999,-99.99,,,-99.99,,2013-02-11 09:32:00,
2013-02-11 04:42:00,65.0,-99.9,30.16,SSE,159,13.0,15.0,-999,-99.99,,,-99.99,,2013-02-11 09:42:00,
2013-02-11 04:52:00,65.0,-99.9,30.16,SSE,164,12.0,14.0,-999,-99.99,,,-99.99,,2013-02-11 09:52:00,
2013-02-11 05:02:00,65.0,-99.9,30.16,SSE,163,11.0,12.0,-999,-99.99,,,-99.99,,2013-02-11 10:02:00,
2013-02-11 05:11:00,65.0,-99.9,30.16,SSE,162,9.0,11.0,-999,-99.99,,,-99.99,,2013-02-11 10:11:00,
2013-02-11 05:22:00,65.0,-99.9,30.16,SSE,167,10.0,11.0,-999,-99.99,,,-99.99,,2013-02-11 10:22:00,
2013-02-11 05:32:00,65.0,-99.9,30.17,SSE,164,9.0,11.0,-999,-99.99,,,-99.99,,2013-02-11 10:32:00,
2013-02-11 05:42:00,65.0,-99.9,30.17,SSE,163,10.0,11.0,-999,-99.99,,,-99.99,,2013-02-11 10:42:00,
2013-02-11 05:52:00,65.0,-99.9,30.17,SSE,162,10.0,11.0,-999,-99.99,,,-99.99,,2013-02-11 10:52:00,
2013-02-11 06:02:00,65.0,-99.9,30.17,SSE,161,10.0,11.0,-999,-99.99,,,-99.99,,2013-02-11 11:02:00,
2013-02-11 06:11:00,65.0,-99.9,30.18,SSE,164,9.0,12.0,-999,-99.99,,,-99.99,,2013-02-11 11:11:00,
2013-02-11 06:22:00,65.0,-99.9,30.19,SSE,162,9.0,11.0,-999,-99.99,,,-99.99,,2013-02-11 11:22:00,
2013-02-11 06:32:00,65.0,-99.9,30.19,SSE,160,9.0,11.0,-999,-99.99,,,-99.99,,2013-02-11 11:32:00,
2013-02-11 06:42:00,64.0,-99.9,30.19,SSE,147,7.0,9.0,-999,-99.99,,,-99.99,,2013-02-11 11:42:00,
2013-02-11 06:52:00,64.0,-99.9,30.20,SSE,151,7.0,9.0,-999,-99.99,,,-99.99,,2013-02-11 11:52:00,
2013-02-11 07:03:00,64.0,-99.9,30.20,SSE,155,9.0,11.0,-999,-99.99,,,-99.99,,2013-02-11 12:03:00,
2013-02-11 07:12:00,64.0,-99.9,30.20,SSE,153,9.0,11.0,-999,-99.99,,,-99.99,,2013-02-11 12:12:00,
2013-02-11 07:22:00,64.0,-99.9,30.20,SE,146,9.0,10.0,-999,-99.99,,,-99.99,,2013-02-11 12:22:00,
2013-02-11 07:32:00,64.0,-99.9,30.21,SE,140,6.0,10.0,-999,-99.99,,,-99.99,,2013-02-11 12:32:00,
2013-02-11 07:43:00,64.0,-99.9,30.20,SE,144,9.0,12.0,-999,-99.99,,,-99.99,,2013-02-11 12:43:00,
2013-02-11 07:52:00,64.0,-99.9,30.21,SSE,148,7.0,10.0,-999,-99.99,,,-99.99,,2013-02-11 12:52:00,
2013-02-11 08:02:00,64.0,-99.9,30.21,SSE,159,8.0,11.0,-999,-99.99,,,-99.99,,2013-02-11 13:02:00,
2013-02-11 08:12:00,64.0,-99.9,30.21,SSE,156,9.0,10.0,-999,-99.99,,,-99.99,,2013-02-11 13:12:00,
2013-02-11 08:22:00,64.0,-99.9,30.22,SSE,153,10.0,12.0,-999,-99.99,,,-99.99,,2013-02-11 13:22:00,
2013-02-11 08:33:00,65.0,-99.9,30.22,SSE,160,10.0,11.0,-999,-99.99,,,-99.99,,2013-02-11 13:33:00,
2013-02-11 08:42:00,65.0,-99.9,30.22,SSE,154,10.0,11.0,-999,-99.99,,,-99.99,,2013-02-11 13:42:00,
2013-02-11 08:52:00,65.0,-99.9,30.22,SSE,162,10.0,12.0,-999,-99.99,,,-99.99,,2013-02-11 13:52:00,
2013-02-11 09:02:00,65.0,-99.9,30.22,SSE,161,11.0,13.0,-999,-99.99,,,-99.99,,2013-02-11 14:02:00,
2013-02-11 09:12:00,65.0,-99.9,30.22,SSE,158,11.0,13.0,-999,-99.99,,,-99.99,,2013-02-11 14:12:00,
2013-02-11 09:22:00,65.0,-99.9,30.22,SSE,162,10.0,13.0,-999,-99.99,,,-99.99,,2013-02-11 14:22:00,
2013-02-11 09:33:00,65.0,-99.9,30.22,SSE,163,9.0,13.0,-999,-99.99,,,-99.99,,2013-02-11 14:33:00,
2013-02-11 09:42:00,66.0,-99.9,30.22,SSE,161,10.0,13.0,-999,-99.99,,,-99.99,,2013-02-11 14:42:00,
2013-02-11 09:53:00,67.0,-99.9,30.22,SSE,158,10.0,11.0,-999,-99.99,,,-99.99,,2013-02-11 14:53:00,
2013-02-11 10:02:00,67.0,-99.9,30.23,SSE,157,9.0,12.0,-999,-99.99,,,-99.99,,2013-02-11 15:02:00,
2013-02-11 10:12:00,68.0,-99.9,30.23,SSE,161,8.0,9.0,-999,-99.99,,,-99.99,,2013-02-11 15:12:00,
2013-02-11 10:22:00,68.0,-99.9,30.23,SSE,163,7.0,9.0,-999,-99.99,,,-99.99,,2013-02-11 15:22:00,
2013-02-11 10:32:00,69.0,-99.9,30.23,SSE,168,7.0,9.0,-999,-99.99,,,-99.99,,2013-02-11 15:32:00,
2013-02-11 10:42:00,69.0,-99.9,30.23,South,170,7.0,9.0,-999,-99.99,,,-99.99,,2013-02-11 15:42:00,
2013-02-11 10:52:00,69.0,-99.9,30.23,SSE,166,7.0,9.0,-999,-99.99,,,-99.99,,2013-02-11 15:52:00,
2013-02-11 11:02:00,69.0,-99.9,30.23,South,172,7.0,9.0,-999,-99.99,,,-99.99,,2013-02-11 16:02:00,
2013-02-11 11:12:00,70.0,-99.9,30.23,South,170,9.0,10.0,-999,-99.99,,,-99.99,,2013-02-11 16:12:00,
2013-02-11 11:22:00,70.0,-99.9,30.23,South,170,9.0,10.0,-999,-99.99,,,-99.99,,2013-02-11 16:22:00,
2013-02-11 11:32:00,71.0,-99.9,30.22,South,171,8.0,11.0,-999,-99.99,,,-99.99,,2013-02-11 16:32:00,
2013-02-11 11:43:00,71.0,-99.9,30.22,South,174,8.0,10.0,-999,-99.99,,,-99.99,,2013-02-11 16:43:00,
2013-02-11 11:53:00,71.0,-99.9,30.22,SSE,167,8.0,9.0,-999,-99.99,,,-99.99,,2013-02-11 16:53:00,
2013-02-11 12:02:00,71.0,-99.9,30.22,SSE,167,7.0,9.0,-999,-99.99,,,-99.99,,2013-02-11 17:02:00,
2013-02-11 12:12:00,73.0,-99.9,30.21,South,170,9.0,11.0,-999,-99.99,,,-99.99,,2013-02-11 17:12:00,
2013-02-11 12:22:00,72.0,-99.9,30.21,SSE,166,7.0,9.0,-999,-99.99,,,-99.99,,2013-02-11 17:22:00,
2013-02-11 12:32:00,72.0,-99.9,30.21,SSE,166,8.0,9.0,-999,-99.99,,,-99.99,,2013-02-11 17:32:00,
2013-02-11 12:42:00,73.0,-99.9,30.20,SSE,168,8.0,9.0,-999,-99.99,,,-99.99,,2013-02-11 17:42:00,
2013-02-11 12:53:00,73.0,-99.9,30.19,SSE,164,9.0,10.0,-999,-99.99,,,-99.99,,2013-02-11 17:53:00,
2013-02-11 13:02:00,74.0,-99.9,30.19,South,179,10.0,13.0,-999,-99.99,,,-99.99,,2013-02-11 18:02:00,
2013-02-11 13:12:00,73.0,-99.9,30.19,South,171,10.0,13.0,-999,-99.99,,,-99.99,,2013-02-11 18:12:00,
2013-02-11 13:22:00,75.0,-99.9,30.18,South,190,13.0,16.0,-999,-99.99,,,-99.99,,2013-02-11 18:22:00,
2013-02-11 13:32:00,75.0,-99.9,30.17,SSW,197,14.0,19.0,-999,-99.99,,,-99.99,,2013-02-11 18:32:00,
2013-02-11 13:42:00,75.0,-99.9,30.17,SSW,193,16.0,19.0,-999,-99.99,,,-99.99,,2013-02-11 18:42:00,
2013-02-11 13:54:00,76.0,-99.9,30.16,SSW,204,13.0,19.0,-999,-99.99,,,-99.99,,2013-02-11 18:54:00,
2013-02-11 14:02:00,75.0,-99.9,30.16,SSW,199,13.0,17.0,-999,-99.99,,,-99.99,,2013-02-11 19:02:00,
2013-02-11 14:12:00,75.0,-99.9,30.16,SSW,192,12.0,16.0,-999,-99.99,,,-99.99,,2013-02-11 19:12:00,
2013-02-11 14:22:00,76.0,-99.9,30.15,SSW,213,14.0,20.0,-999,-99.99,,,-99.99,,2013-02-11 19:22:00,
2013-02-11 14:32:00,75.0,-99.9,30.15,SSW,205,17.0,22.0,-999,-99.99,,,-99.99,,2013-02-11 19:32:00,
2013-02-11 14:42:00,75.0,-99.9,30.15,SSW,195,17.0,22.0,-999,-99.99,,,-99.99,,2013-02-11 19:42:00,
2013-02-11 14:52:00,75.0,-99.9,30.14,SSW,209,18.0,22.0,-999,-99.99,,,-99.99,,2013-02-11 19:52:00,
2013-02-11 15:02:00,75.0,-99.9,30.14,SSW,207,14.0,22.0,-999,-99.99,,,-99.99,,2013-02-11 20:02:00,
2013-02-11 15:12:00,75.0,-99.9,30.14,SSW,197,15.0,19.0,-999,-99.99,,,-99.99,,2013-02-11 20:12:00,
2013-02-11 15:22:00,76.0,-99.9,30.14,SSW,210,15.0,20.0,-999,-99.99,,,-99.99,,2013-02-11 20:22:00,
2013-02-11 15:32:00,75.0,-99.9,30.14,SSW,210,15.0,19.0,-999,-99.99,,,-99.99,,2013-02-11 20:32:00,
2013-02-11 15:42:00,75.0,-99.9,30.14,SSW,211,18.0,24.0,-999,-99.99,,,-99.99,,2013-02-11 20:42:00,
2013-02-11 15:52:00,76.0,-99.9,30.13,SSW,205,15.0,21.0,-999,-99.99,,,-99.99,,2013-02-11 20:52:00,
2013-02-11 16:02:00,76.0,-99.9,30.13,SSW,210,14.0,17.0,-999,-99.99,,,-99.99,,2013-02-11 21:02:00,
2013-02-11 16:12:00,75.0,-99.9,30.13,SW,214,15.0,21.0,-999,-99.99,,,-99.99,,2013-02-11 21:12:00,
2013-02-11 16:22:00,75.0,-99.9,30.13,SSW,209,16.0,20.0,-999,-99.99,,,-99.99,,2013-02-11 21:22:00,
2013-02-11 16:32:00,75.0,-99.9,30.13,SSW,205,16.0,21.0,-999,-99.99,,,-99.99,,2013-02-11 21:32:00,
2013-02-11 16:42:00,75.0,-99.9,30.13,SSW,207,15.0,22.0,-999,-99.99,,,-99.99,,2013-02-11 21:42:00,
2013-02-11 16:52:00,75.0,-99.9,30.12,SSW,202,14.0,21.0,-999,-99.99,,,-99.99,,2013-02-11 21:52:00,
2013-02-11 17:02:00,74.0,-99.9,30.12,SSW,210,16.0,20.0,-999,-99.99,,,-99.99,,2013-02-11 22:02:00,
2013-02-11 17:12:00,74.0,-99.9,30.12,SSW,212,17.0,21.0,-999,-99.99,,,-99.99,,2013-02-11 22:12:00,
2013-02-11 17:22:00,74.0,-99.9,30.12,SSW,211,13.0,17.0,-999,-99.99,,,-99.99,,2013-02-11 22:22:00,
2013-02-11 17:32:00,74.0,-99.9,30.12,SSW,204,14.0,18.0,-999,-99.99,,,-99.99,,2013-02-11 22:32:00,
2013-02-11 17:42:00,74.0,-99.9,30.12,SW,216,11.0,17.0,-999,-99.99,,,-99.99,,2013-02-11 22:42:00,
2013-02-11 17:53:00,73.0,-99.9,30.12,SW,214,15.0,19.0,-999,-99.99,,,-99.99,,2013-02-11 22:53:00,
2013-02-11 18:02:00,73.0,-99.9,30.12,SSW,208,13.0,18.0,-999,-99.99,,,-99.99,,2013-02-11 23:02:00,
2013-02-11 18:12:00,73.0,-99.9,30.12,SW,214,11.0,14.0,-999,-99.99,,,-99.99,,2013-02-11 23:12:00,
2013-02-11 18:22:00,73.0,-99.9,30.12,SSW,206,12.0,15.0,-999,-99.99,,,-99.99,,2013-02-11 23:22:00,
2013-02-11 18:32:00,73.0,-99.9,30.12,SSW,202,12.0,14.0,-999,-99.99,,,-99.99,,2013-02-11 23:32:00,
2013-02-11 18:42:00,72.0,-99.9,30.12,SSW,211,11.0,13.0,-999,-99.99,,,-99.99,,2013-02-11 23:42:00,
2013-02-11 18:53:00,72.0,-99.9,30.12,SSW,206,10.0,12.0,-999,-99.99,,,-99.99,,2013-02-11 23:53:00,
2013-02-11 19:02:00,72.0,-99.9,30.12,SSW,199,12.0,16.0,-999,-99.99,,,-99.99,,2013-02-12 00:02:00,
2013-02-11 19:12:00,72.0,-99.9,30.12,SSW,204,10.0,14.0,-999,-99.99,,,-99.99,,2013-02-12 00:12:00,
2013-02-11 19:22:00,72.0,-99.9,30.12,SSW,199,10.0,15.0,-999,-99.99,,,-99.99,,2013-02-12 00:22:00,
2013-02-11 19:32:00,71.0,-99.9,30.12,SSW,203,11.0,13.0,-999,-99.99,,,-99.99,,2013-02-12 00:32:00,
2013-02-11 19:43:00,71.0,-99.9,30.13,SSW,206,9.0,12.0,-999,-99.99,,,-99.99,,2013-02-12 00:43:00,
2013-02-11 19:52:00,71.0,-99.9,30.13,SSW,211,8.0,11.0,-999,-99.99,,,-99.99,,2013-02-12 00:52:00,
2013-02-11 20:02:00,71.0,-99.9,30.13,SW,217,8.0,10.0,-999,-99.99,,,-99.99,,2013-02-12 01:02:00,
2013-02-11 20:12:00,71.0,-99.9,30.14,SW,225,6.0,9.0,-999,-99.99,,,-99.99,,2013-02-12 01:12:00,
2013-02-11 20:22:00,71.0,-99.9,30.14,SW,220,6.0,8.0,-999,-99.99,,,-99.99,,2013-02-12 01:22:00,
2013-02-11 20:32:00,71.0,-99.9,30.14,SW,219,6.0,9.0,-999,-99.99,,,-99.99,,2013-02-12 01:32:00,
2013-02-11 20:42:00,70.0,-99.9,30.14,SW,230,5.0,8.0,-999,-99.99,,,-99.99,,2013-02-12 01:42:00,
2013-02-11 20:52:00,70.0,-99.9,30.14,WSW,237,6.0,8.0,-999,-99.99,,,-99.99,,2013-02-12 01:52:00,
2013-02-11 21:02:00,70.0,-99.9,30.14,SW,232,5.0,8.0,-999,-99.99,,,-99.99,,2013-02-12 02:02:00,
2013-02-11 21:12:00,70.0,-99.9,30.14,SSW,211,5.0,7.0,-999,-99.99,,,-99.99,,2013-02-12 02:12:00,
2013-02-11 21:22:00,70.0,-99.9,30.14,SW,227,4.0,6.0,-999,-99.99,,,-99.99,,2013-02-12 02:22:00,
2013-02-11 21:32:00,70.0,-99.9,30.14,SW,229,5.0,6.0,-999,-99.99,,,-99.99,,2013-02-12 02:32:00,
2013-02-11 21:42:00,69.0,-99.9,30.14,SSW,208,4.0,5.0,-999,-99.99,,,-99.99,,2013-02-12 02:42:00,
2013-02-11 21:53:00,69.0,-99.9,30.14,SW,221,6.0,7.0,-999,-99.99,,,-99.99,,2013-02-12 02:53:00,
2013-02-11 22:02:00,69.0,-99.9,30.14,SSW,203,5.0,6.0,-999,-99.99,,,-99.99,,2013-02-12 03:02:00,
2013-02-11 22:11:00,69.0,-99.9,30.14,SSW,212,5.0,6.0,-999,-99.99,,,-99.99,,2013-02-12 03:11:00,
2013-02-11 22:21:00,69.0,-99.9,30.14,SSW,206,5.0,7.0,-999,-99.99,,,-99.99,,2013-02-12 03:21:00,
2013-02-11 22:32:00,69.0,-99.9,30.14,SW,214,6.0,8.0,-999,-99.99,,,-99.99,,2013-02-12 03:32:00,
2013-02-11 22:42:00,69.0,-99.9,30.14,SW,216,6.0,7.0,-999,-99.99,,,-99.99,,2013-02-12 03:42:00,
2013-02-11 22:52:00,70.0,-99.9,30.14,SSW,205,7.0,9.0,-999,-99.99,,,-99.99,,2013-02-12 03:52:00,
2013-02-11 23:01:00,69.0,-99.9,30.14,SSW,210,7.0,9.0,-999,-99.99,,,-99.99,,2013-02-12 04:01:00,
2013-02-11 23:11:00,69.0,-99.9,30.14,SSW,210,7.0,9.0,-999,-99.99,,,-99.99,,2013-02-12 04:11:00,
2013-02-11 23:22:00,70.0,-99.9,30.14,SSW,201,8.0,10.0,-999,-99.99,,,-99.99,,2013-02-12 04:22:00,
2013-02-11 23:32:00,69.0,-99.9,30.14,SSW,198,9.0,10.0,-999,-99.99,,,-99.99,,2013-02-12 04:32:00,
2013-02-11 23:42:00,69.0,-99.9,30.14,SSW,197,8.0,11.0,-999,-99.99,,,-99.99,,2013-02-12 04:42:00,
2013-02-11 23:52:00,69.0,-99.9,30.14,SSW,197,9.0,11.0,-999,-99.99,,,-99.99,,2013-02-12 04:52:00,